This demonstration page uses our WeatherBlox Daily Observations layout. Learn more.

Left ArrowRight Arrow

44.8408, -93.29828

Hourly Observations for June 17, 2017

Temp ( °F °C ) Dew Point ( °F °C ) Humidity (%) Winds ( mph kmh ) Pressure ( in mb ) Visibility ( mi km ) Precip ( " mm )
12:53 am 00:53 Mostly Cloudy 70 21.1 55 12.8 59 59 Calm 29.60 1002 10 16 0.00 0.00
1:53 am 01:53 Mostly Clear 68 20 55 12.8 63 63 NNW 5 7 29.58 1002 10 16 0.00 0.00
2:53 am 02:53 Mostly Clear 68 20 55 12.8 63 63 SW 5 7 29.58 1002 10 16 0.00 0.00
3:53 am 03:53 Mostly Clear 67 19.4 55 12.8 66 66 SSW 3 6 29.58 1002 10 16 0.00 0.00
4:53 am 04:53 Mostly Clear 65 18.3 55 12.8 70 70 SSW 3 6 29.58 1002 10 16 0.00 0.00
5:53 am 05:53 Mostly Sunny 65 18.3 55 12.8 70 70 SW 3 6 29.60 1002 10 16 0.00 0.00
6:53 am 06:53 Mostly Sunny 67 19.4 56 13.3 68 68 SSW 3 6 29.61 1003 10 16 0.00 0.00
7:53 am 07:53 Mostly Cloudy 71 21.7 56 13.3 59 59 SW 5 7 29.60 1002 10 16 0.00 0.00
8:53 am 08:53 Mostly Cloudy 75 23.9 55 12.8 50 50 WSW 9 15 29.60 1003 10 16 0.00 0.00
9:53 am 09:53 Mostly Cloudy 76 24.4 55 12.8 48 48 WSW 8 13 29.60 1003 10 16 0.00 0.00
10:53 am 10:53 Mostly Cloudy 77 25 58 14.4 52 52 W 8 13 29.60 1002 10 16 0.00 0.00
11:53 am 11:53 Mostly Cloudy 81 27.2 55 12.8 41 41 W 9 15 29.60 1002 10 16 0.00 0.00
12:53 pm 12:53 Mostly Cloudy 81 27.2 53 11.7 38 38 WNW 9 15 29.59 1002 10 16 0.00 0.00
1:53 pm 13:53 Mostly Cloudy 83 28.3 55 12.8 38 38 WNW 12 19 29.58 1002 10 16 0.00 0.00
2:53 pm 14:53 Mostly Cloudy 84 28.9 56 13.3 38 38 NW 10 17 29.57 1001 10 16 0.00 0.00
3:53 pm 15:53 Mostly Cloudy 82 27.8 55 12.8 40 40 WNW 8 13 29.55 1001 10 16 0.00 0.00
4:53 pm 16:53 Cloudy 81 27.2 54 12.2 39 39 WNW 8 13 29.56 1001 10 16 0.00 0.00
5:53 pm 17:53 Cloudy 80 26.7 54 12.2 41 41 W 9 15 29.55 1001 10 16 0.00 0.00
6:53 pm 18:53 Cloudy with Light Rain 69 20.6 61 16.1 76 76 SSW 7 11 29.58 1002 9 14 0.05 1.27
7:53 pm 19:53 Cloudy with Light Rain 68 20 58 14.4 70 70 NW 16 26 29.60 1003 10 16 0.00 0.03
8:53 pm 20:53 Cloudy with Light Rain 65 18.3 59 15 81 81 NW 10 17 29.62 1003 8 13 0.03 0.76
9:53 pm 21:53 Cloudy with Light Rain 64 17.8 60 15.6 87 87 WNW 3 6 29.62 1003 10 16 0.10 2.54
10:17 pm 22:17 Cloudy with Light Rain 64 17.8 60 15.6 87 87 WSW 6 9 29.65 1004 10 16 0.00 0.03
10:39 pm 22:39 Cloudy with Light Rain 64 17.8 60 15.6 87 87 WSW 5 7 29.65 1004 10 16 0.00 0.03
10:53 pm 22:53 Cloudy with Light Rain 64 17.8 60 15.6 87 87 SW 5 7 29.61 1003 10 16 0.00 0.03
11:53 pm 23:53 Cloudy with Light Rain 63 17.2 60 15.6 90 90 W 7 11 29.60 1002 8 13 0.01 0.25

Powered by AerisWeather